Tracking 30258 objects as of 19-Feb-2025
HD Live streaming from Space Station
objects crossing your sky now

COSMOS 374 DEB

Track COSMOS 374 DEB now!
10-day predictions


NORAD ID: 18517
Int'l Code: 1970-089DD
Perigee: 492.1 km
Apogee: 1,040.0 km
Inclination: 62.4 °
Period: 100.0 minutes
Semi major axis: 7137 km
RCS: 0.0081 m2 (small)
Launch date: October 23, 1970
Source: Commonwealth of Independent States (former USSR) (CIS)
Launch site: TYURATAM MISSILE AND SPACE COMPLEX (TTMTR)

Note: This is SATELLITE DEBRIS
Your satellite tracking list
Your tracking list is empty




NASA's NSSDC Master Catalog

Two Line Element Set (TLE):
1 18517U 70089DD  25050.49206267  .00028004  00000-0  36850-2 0  9992
2 18517  62.3862 180.7561 0383809  78.2672 286.1181 14.39879180803459
Source of the keplerian elements: AFSPC